N9XP-9 Weather Reports


time (UTC)temp
F
wind
direction
speed
knots
gust
knots
rain 1hr
in
rain 24hr
in
rain mn
in
humidity
%
barometer
mb
20260509160021 66 122 1.7 8.7 0.00 0.00 0.00 60 1004.5
20260509154518 66 136 2.6 6.1 0.00 0.00 0.00 62 1004.4
20260509153018 64 137 2.6 6.1 0.00 0.00 0.00 65 1004.6
20260509151509 63 163 1.7 7.8 0.00 0.00 0.00 68 1004.5
20260509150007 62 153 1.7 7.8 0.00 0.00 0.00 72 1004.6
20260509144503 61 135 2.6 6.1 0.00 0.00 0.00 73 1004.6
20260509143109 60 124 0.9 7.0 0.00 0.00 0.00 75 1004.6
20260509141556 59 166 1.7 7.8 0.00 0.00 0.00 77 1004.6
20260509140053 58 134 1.7 7.8 0.00 0.00 0.00 79 1004.5
20260509134551 57 191 0.9 7.8 0.00 0.00 0.00 82 1004.6
20260509133104 56 211 1.7 7.0 0.00 0.00 0.00 82 1004.2
20260509131544 56 217 1.7 7.8 0.00 0.00 0.00 84 1004.4
20260509130042 55 131 0.9 8.7 0.00 0.00 0.00 87 1004.5
20260509124540 54 244 2.6 7.0 0.00 0.00 0.00 88 1004.4
20260509123037 53 130 1.7 7.0 0.00 0.00 0.00 90 1004.5
20260509121539 52 181 1.7 5.2 0.00 0.00 0.00 92 1004.4
20260509120035 52 168 0.9 5.2 0.00 0.00 0.00 93 1004.4
20260509114536 50 150 0.9 3.5 0.00 0.00 0.00 94 1004.3
20260509113036 50 149 0.9 3.5 0.00 0.00 0.00 94 1004.1
20260509111533 50 165 0.0 2.6 0.00 0.00 0.00 93 1003.9
20260509110032 51 58 0.9 4.3 0.00 0.00 0.00 93 1003.9
20260509104541 51 141 1.7 3.5 0.00 0.00 0.00 93 1004.1
20260509103034 51 145 0.0 4.3 0.00 0.00 0.00 92 1003.7
20260509101536 51 113 0.9 5.2 0.00 0.00 0.00 94 1003.7
20260509100030 50 148 0.9 3.5 0.00 0.00 0.00 95 1003.8
20260509094533 50 132 0.9 4.3 0.00 0.00 0.00 96 1004.1
20260509093025 50 135 0.0 0.9 0.00 0.00 0.00 95 1004.2
20260509091525 50 139 0.0 1.7 0.00 0.00 0.00 95 1004.5
20260509090020 50 134 0.0 0.9 0.00 0.00 0.00 94 1004.5
20260509084520 50 136 0.9 2.6 0.00 0.00 0.00 94 1004.5
20260509083017 50 155 0.0 2.6 0.00 0.00 0.00 93 1004.5
20260509081523 51 131 0.0 3.5 0.00 0.00 0.00 93 1004.6
20260509080016 51 117 0.0 1.7 0.00 0.00 0.00 93 1004.6
20260509074515 51 105 0.0 0.9 0.00 0.00 0.00 91 1004.6
20260509073030 51 143 0.0 3.5 0.00 0.00 0.00 91 1004.9
20260509071512 52 189 0.9 3.5 0.00 0.00 0.00 90 1004.9
20260509070017 52 155 0.9 3.5 0.00 0.00 0.00 90 1005.2
20260509064505 52 135 0.9 2.6 0.00 0.00 0.00 89 1005.5
20260509063004 52 156 0.0 3.5 0.00 0.00 0.00 89 1005.6
20260509061501 53 169 1.7 3.5 0.00 0.00 0.00 89 1005.7
20260509060113 53 143 0.9 4.3 0.00 0.00 0.00 89 1005.8
20260509054558 53 128 0.9 3.5 0.00 0.00 0.00 89 1006.0
20260509053057 53 131 0.9 3.5 0.00 0.00 0.00 88 1006.0
20260509051556 53 161 0.0 2.6 0.00 0.00 0.00 87 1006.1
20260509050051 54 169 0.0 1.7 0.00 0.00 0.00 86 1006.0
20260509044551 54 141 0.0 1.7 0.00 0.00 0.00 84 1006.1
20260509043051 55 160 0.0 1.7 0.00 0.00 0.00 82 1006.0
20260509041550 55 127 0.9 3.5 0.00 0.00 0.00 80 1006.0
20260509040049 56 160 0.9 4.3 0.00 0.00 0.00 77 1006.1
20260509034549 56 167 0.9 6.1 0.00 0.00 0.00 75 1006.2
20260509033048 57 153 0.0 3.5 0.00 0.00 0.00 74 1006.2
20260509031548 57 152 0.9 4.3 0.00 0.00 0.00 73 1006.2
20260509030051 57 91 0.0 4.3 0.00 0.00 0.00 69 1006.2
20260509024546 58 159 1.7 7.0 0.00 0.00 0.00 66 1006.2
20260509023045 57 144 0.0 1.7 0.00 0.00 0.00 66 1006.2
20260509021545 56 134 0.0 0.0 0.00 0.00 0.00 66 1006.2
20260509020053 57 152 0.0 0.0 0.00 0.00 0.00 64 1006.1
20260509014548 59 151 0.0 0.0 0.00 0.00 0.00 61 1006.1
20260509013043 60 158 0.0 2.6 0.00 0.00 0.00 58 1006.0
20260509011542 61 163 0.0 2.6 0.00 0.00 0.00 57 1006.0
20260509010041 62 141 0.9 3.5 0.00 0.00 0.00 55 1005.9
20260509004540 63 172 0.9 3.5 0.00 0.00 0.00 54 1006.0
20260509003043 64 169 1.7 5.2 0.00 0.00 0.00 52 1006.0
20260509001538 64 148 0.0 2.6 0.00 0.00 0.00 50 1006.1
20260509000038 64 141 0.9 3.5 0.00 0.00 0.00 49 1006.1
20260508234536 65 134 0.0 3.5 0.00 0.00 0.00 49 1006.1
20260508233036 65 110 0.9 4.3 0.00 0.00 0.00 47 1006.2
20260508231535 65 172 0.9 5.2 0.00 0.00 0.00 48 1006.2
20260508230034 66 171 0.9 3.5 0.00 0.00 0.00 47 1006.4
20260508224533 66 160 2.6 6.1 0.00 0.00 0.00 44 1006.3
20260508223039 66 160 2.6 4.3 0.00 0.00 0.00 46 1006.4
20260508221531 66 157 0.9 4.3 0.00 0.00 0.00 45 1006.5
20260508220033 66 141 0.0 8.7 0.00 0.00 0.00 48 1006.6
20260508214528 65 121 0.9 3.5 0.00 0.04 0.00 48 1006.8
20260508213027 65 141 1.7 7.0 0.00 0.04 0.00 48 1006.9
20260508211528 65 161 2.6 6.1 0.00 0.04 0.00 47 1006.9
20260508210025 66 121 2.6 6.1 0.00 0.04 0.00 46 1007.0
20260508204524 68 112 0.9 6.1 0.00 0.04 0.00 42 1007.0
20260508203022 69 353 0.9 8.7 0.00 0.04 0.00 40 1007.1
20260508201522 67 169 0.9 3.5 0.00 0.04 0.00 45 1007.4
20260508200019 65 160 0.0 7.0 0.00 0.04 0.00 43 1007.7
20260508194513 66 138 0.0 3.5 0.00 0.04 0.00 47 1007.9
20260508193011 65 137 0.0 4.3 0.00 0.04 0.00 49 1008.2
20260508191521 66 131 3.5 7.0 0.00 0.04 0.00 47 1008.3
20260508190013 66 156 1.7 5.2 0.00 0.04 0.00 50 1008.5
20260508184506 65 157 1.7 6.1 0.00 0.04 0.00 49 1008.6
20260508183004 66 46 0.9 3.5 0.00 0.04 0.00 48 1008.9
20260508181609 65 139 1.7 7.0 0.00 0.04 0.00 50 1009.1
20260508174606 64 131 0.9 6.1 0.00 0.04 0.00 54 1009.5
20260508173053 63 82 0.9 7.0 0.00 0.04 0.00 56 1009.7
20260508171549 63 133 0.0 6.1 0.00 0.04 0.00 56 1010.1
20260508170048 63 113 0.9 5.2 0.00 0.04 0.00 56 1010.2
20260508164544 62 102 1.7 5.2 0.00 0.04 0.00 60 1010.5
20260508163041 62 164 1.7 5.2 0.00 0.04 0.00 57 1010.6
20260508161540 62 147 1.7 4.3 0.00 0.04 0.00 57 1010.9